Hoquiam, WA

4:00 PM PDT on October 16, 2017 (GMT -0700)
Bowerman

Weather History for KHQM - August, 2013

Change the Weather History Date:

Thursday, August 8, 2013

  Actual Average Record
Temperature  
Mean Temperature 61 °F 61 °F  
Max Temperature 67 °F 67 °F 91 °F (1981)
Min Temperature 55 °F 54 °F 45 °F (1969)
Degree Days  
Heating Degree Days 4 4  
Month to date heating degree days 41 32  
Since 1 June heating degree days 363 442  
Cooling Degree Days 0 0  
Month to date cooling degree days 0 0  
Year to date cooling degree days 11 9  
Since 1 June cooling degree days 8 8  
Growing Degree Days 12 (Base 50)    
Moisture  
Dew Point 57 °F    
Average Humidity 87    
Maximum Humidity 100    
Minimum Humidity 73    
Precipitation  
Precipitation 0.00 in 0.03 in 0.40 in (1994)
Month to date precipitation T 0.21  
Year to date precipitation 32.56 36.51  
Sea Level Pressure  
Sea Level Pressure 30.04 in    
Wind  
Wind Speed 9 mph (WSW)    
Max Wind Speed 20 mph    
Max Gust Speed 24 mph    
Visibility 6 miles    
Events Fog    
T = Trace of Precipitation, MM = Missing Value Source: NWS Daily Summary

Daily Weather History Graph

Daily Weather History Graph

Search for Another Location

Airport or City:

Trip Planner

Search our weather history database for the weather conditions in past years. The results will help you decide how hot, cold, wet, or windy it might be!

Date:

Astronomy

Aug. 08, 2013 Rise Set
Actual Time 6:04 AM PDT 8:37 PM PDT
Civil Twilight 5:30 AM PDT 9:11 PM PDT
Nautical Twilight 4:46 AM PDT 9:54 PM PDT
Astronomical Twilight 3:56 AM PDT 10:43 PM PDT
Moon 8:08 AM PDT (8/8) 9:05 PM PDT (8/8)
Length of Visible Light 15h 41m
Length of Day
14h 32m
Waxing Crescent, 3% of the Moon is Illuminated
Aug 8
Waxing Crescent
Aug 14
First Quarter
Aug 20
Full
Aug 28
Last Quarter
Sep 5
New

Hourly Weather History & Observations

Time (PDT) Temp. Dew Point Humidity Pressure Visibility Wind Dir Wind Speed Gust Speed Precip Events Conditions
12:12 AM 57.2 °F 57.2 °F 100% 30.06 in 2.0 mi WSW 9.2 mph - N/A   Overcast
12:43 AM 57.2 °F 57.2 °F 100% 30.06 in 1.8 mi WSW 10.4 mph - N/A   Overcast
12:53 AM 57.9 °F 57.0 °F 97% 30.07 in 3.0 mi WSW 8.1 mph - N/A   Overcast
1:31 AM 57.2 °F 57.2 °F 100% 30.06 in 2.0 mi WSW 6.9 mph - N/A   Overcast
1:48 AM 57.2 °F 57.2 °F 100% 30.06 in 1.5 mi WSW 6.9 mph - N/A   Overcast
1:53 AM 57.9 °F 57.0 °F 97% 30.07 in 1.2 mi WSW 8.1 mph - N/A   Overcast
2:53 AM 57.9 °F 57.9 °F 100% 30.06 in 1.5 mi West 8.1 mph - N/A   Overcast
3:09 AM 57.2 °F 57.2 °F 100% 30.04 in 2.0 mi West 6.9 mph - N/A   Overcast
3:53 AM 57.9 °F 57.9 °F 100% 30.05 in 3.0 mi West 6.9 mph - N/A   Overcast
4:05 AM 57.2 °F 57.2 °F 100% 30.04 in 2.0 mi West 4.6 mph - N/A   Overcast
4:12 AM 57.2 °F 57.2 °F 100% 30.04 in 1.5 mi West 4.6 mph - N/A   Overcast
4:27 AM 57.2 °F 57.2 °F 100% 30.03 in 3.0 mi West 4.6 mph - N/A   Overcast
4:53 AM 57.9 °F 57.9 °F 100% 30.05 in 2.5 mi Calm Calm - N/A   Overcast
5:14 AM 57.2 °F 57.2 °F 100% 30.03 in 4.0 mi Calm Calm - N/A   Overcast
5:53 AM 57.9 °F 57.0 °F 97% 30.05 in 5.0 mi WSW 4.6 mph - N/A   Overcast
6:21 AM 57.2 °F 57.2 °F 100% 30.04 in 2.5 mi SW 5.8 mph - N/A   Overcast
6:53 AM 57.0 °F 57.0 °F 100% 30.06 in 1.0 mi SW 8.1 mph - N/A   Overcast
7:04 AM 57.2 °F 55.4 °F 94% 30.05 in 0.5 mi SW 9.2 mph - N/A Fog Fog
7:18 AM 57.2 °F 57.2 °F 100% 30.05 in 0.2 mi WSW 8.1 mph - N/A Fog Fog
7:53 AM 57.0 °F 57.0 °F 100% 30.06 in 0.2 mi SW 6.9 mph - N/A Fog Fog
8:05 AM 57.2 °F 57.2 °F 100% 30.05 in 1.0 mi WSW 4.6 mph - N/A   Overcast
8:09 AM 57.2 °F 57.2 °F 100% 30.05 in 4.0 mi WSW 5.8 mph - N/A   Overcast
8:53 AM 57.0 °F 57.0 °F 100% 30.06 in 9.0 mi WSW 5.8 mph - N/A   Overcast
9:53 AM 57.9 °F 57.0 °F 97% 30.06 in 10.0 mi WSW 4.6 mph - N/A   Overcast
10:53 AM 60.1 °F 57.0 °F 90% 30.07 in 10.0 mi SW 9.2 mph - N/A   Overcast
11:04 AM 60.8 °F 57.2 °F 88% 30.06 in 10.0 mi SW 10.4 mph - N/A   Overcast
11:53 AM 62.1 °F 57.9 °F 86% 30.07 in 10.0 mi SW 11.5 mph - N/A   Overcast
12:04 PM 62.6 °F 57.2 °F 82% 30.05 in 10.0 mi WSW 12.7 mph - N/A   Overcast
12:28 PM 62.6 °F 57.2 °F 82% 30.05 in 10.0 mi SW 15.0 mph - N/A   Scattered Clouds
12:53 PM 63.0 °F 57.0 °F 81% 30.06 in 10.0 mi SW 17.3 mph - N/A   Clear
1:53 PM 64.9 °F 57.9 °F 78% 30.05 in 10.0 mi SW 16.1 mph - N/A   Clear
2:53 PM 64.0 °F 57.0 °F 78% 30.05 in 10.0 mi SW 19.6 mph - N/A   Clear
3:53 PM 66.0 °F 57.0 °F 73% 30.04 in 10.0 mi WSW 16.1 mph - N/A   Clear
4:53 PM 63.0 °F 57.0 °F 81% 30.04 in 10.0 mi WSW 16.1 mph - N/A   Clear
5:53 PM 63.0 °F 55.9 °F 78% 30.03 in 10.0 mi West 13.8 mph - N/A   Clear
6:53 PM 61.0 °F 55.0 °F 81% 30.01 in 10.0 mi West 8.1 mph - N/A   Clear
7:53 PM 60.1 °F 55.0 °F 83% 30.00 in 10.0 mi West 4.6 mph - N/A   Clear
8:28 PM 59.0 °F 55.4 °F 88% 29.99 in 10.0 mi West 5.8 mph - N/A   Mostly Cloudy
8:53 PM 59.0 °F 55.0 °F 87% 30.00 in 10.0 mi West 4.6 mph - N/A   Overcast
9:06 PM 59.0 °F 55.4 °F 88% 29.99 in 10.0 mi West 5.8 mph - N/A   Overcast
9:53 PM 57.0 °F 55.0 °F 93% 30.01 in 10.0 mi WSW 5.8 mph - N/A   Overcast
10:53 PM 57.0 °F 55.0 °F 93% 30.01 in 10.0 mi SW 4.6 mph - N/A   Overcast
11:53 PM 57.0 °F 55.0 °F 93% 30.01 in 10.0 mi WSW 3.5 mph - N/A   Overcast